This is the latest recevied weather packets stored in our database for station/object WX2NJ-13. If no packets are shown the sender has not sent any weather packets the latest 10 day(s).
| Time | Temp. | Humidity | Pressure | Rain* | Wind** | Luminosity | Snow |
|---|---|---|---|---|---|---|---|
| 1778093280 | 20° C | 68% | 1009 hPa | 0 mm | 1.79 m/s, 167° | - | - |
| 1778092982 | 20° C | 67% | 1008.9 hPa | 0 mm | 2.24 m/s, 152° | - | - |
| 1778092680 | 20.56° C | 67% | 1008.8 hPa | 0 mm | 0.89 m/s, 143° | - | - |
| 1778092382 | 20.56° C | 66% | 1008.8 hPa | 0 mm | 1.34 m/s, 173° | - | - |
| 1778092083 | 20.56° C | 66% | 1008.9 hPa | 0 mm | 0.89 m/s, 181° | - | - |
| 1778091781 | 20.56° C | 66% | 1008.9 hPa | 0 mm | 1.34 m/s, 195° | - | - |
| 1778091483 | 20.56° C | 66% | 1008.9 hPa | 0 mm | 2.24 m/s, 155° | - | - |
| 1778091184 | 20.56° C | 66% | 1008.9 hPa | 0 mm | 1.79 m/s, 300° | - | - |
| 1778090882 | 21.11° C | 65% | 1009 hPa | 0 mm | 1.34 m/s, 193° | - | - |
| 1778090584 | 21.11° C | 65% | 1009 hPa | 0 mm | 1.34 m/s, 180° | - | - |
| 1778090285 | 21.11° C | 65% | 1009.1 hPa | 0 mm | 1.34 m/s, 177° | - | - |
| 1778089984 | 21.11° C | 65% | 1009.2 hPa | 0 mm | 1.79 m/s, 155° | - | - |
| 1778089685 | 21.11° C | 65% | 1009.4 hPa | 0 mm | 1.34 m/s, 179° | - | - |
| 1778089383 | 21.11° C | 66% | 1009.4 hPa | 0 mm | 1.79 m/s, 181° | - | - |
| 1778089082 | 21.11° C | 66% | 1009.4 hPa | 0 mm | 2.24 m/s, 172° | - | - |
| 1778088783 | 21.11° C | 67% | 1009.3 hPa | 0 mm | 1.34 m/s, 165° | - | - |
| 1778088485 | 20.56° C | 68% | 1009.5 hPa | 0 mm | 1.79 m/s, 191° | - | - |
| 1778088183 | 20.56° C | 69% | 1009.4 hPa | 0 mm | 1.34 m/s, 198° | - | - |
| 1778087885 | 20.56° C | 70% | 1009.5 hPa | 0 mm | 1.34 m/s, 152° | - | - |
| 1778087586 | 20° C | 71% | 1009.5 hPa | 0 mm | 0.89 m/s, 166° | - | - |
| 1778087285 | 20° C | 70% | 1009.7 hPa | 0 mm | 1.79 m/s, 203° | - | - |
| 1778086986 | 20° C | 69% | 1009.8 hPa | 0 mm | 0.89 m/s, 65° | - | - |
| 1778086688 | 20° C | 69% | 1009.9 hPa | 0 mm | 1.34 m/s, 156° | - | - |
| 1778086386 | 20° C | 69% | 1009.9 hPa | 0 mm | 0.89 m/s, 158° | - | - |
| 1778086088 | 20° C | 69% | 1010.2 hPa | 0 mm | 1.34 m/s, 165° | - | - |
* Rain latest hour (hover to see other rain measurements)
** Current wind speed in m/s (hover to see current wind gust speed)